Total_Precipitation_Accumulation
0.38 0.36 0.46 0.67 0.78 0.76 0.77 0.83 1.10 1.12 1.05 1.00 0.97 0.96 0.90 0.92 0.91 0.84 0.77 0.77 0.80 0.86 0.88 0.87 0.87 0.95 1.02 1.11 1.25 1.42 1.58 1.59 1.48 1.31 1.17 1.10 1.05 0.97 0.94 0.95 0.97 1.05 1.11 1.11
0.29 0.26 0.34 0.50 0.59 0.61 0.59 0.59 0.70 0.80 0.81 0.70 0.65 0.67 0.67 0.69 0.65 0.61 0.57 0.54 0.53 0.53 0.52 0.51 0.49 0.50 0.54 0.66 0.85 1.10 1.38 1.41 1.26 1.11 0.97 0.89 0.90 0.92 0.93 0.91 0.96 0.99 0.94 0.96
0.43 0.34 0.34 0.58 0.58 0.52 0.52 0.45 0.49 0.59 0.60 0.51 0.54 0.60 0.62 0.66 0.67 0.53 0.42 0.40 0.41 0.40 0.38 0.37 0.37 0.37 0.41 0.50 0.64 0.83 0.97 0.99 0.94 0.88 0.87 0.90 0.92 0.88 0.89 0.91 0.93 0.95 0.92 0.90
0.47 0.49 0.73 0.89 0.74 0.60 0.57 0.39 0.34 0.39 0.40 0.42 0.52 0.56 0.56 0.52 0.51 0.50 0.39 0.30 0.29 0.30 0.32 0.36 0.37 0.40 0.45 0.52 0.58 0.63 0.67 0.71 0.71 0.72 0.76 0.83 0.86 0.84 0.90 0.94 0.90 0.91 0.96 0.97
0.59 0.68 0.83 0.83 0.70 0.69 0.69 0.54 0.34 0.35 0.34 0.30 0.30 0.32 0.33 0.32 0.30 0.29 0.26 0.22 0.20 0.20 0.21 0.25 0.27 0.28 0.29 0.32 0.34 0.36 0.38 0.40 0.46 0.51 0.54 0.58 0.60 0.69 0.82 0.90 0.92 0.95 1.00 1.00
0.65 0.76 0.89 0.69 0.42 0.42 0.59 0.75 0.32 0.27 0.27 0.21 0.20 0.28 0.27 0.26 0.26 0.23 0.20 0.22 0.21 0.18 0.18 0.21 0.23 0.25 0.24 0.24 0.25 0.26 0.26 0.28 0.32 0.36 0.39 0.43 0.49 0.56 0.64 0.69 0.76 0.89 0.92 0.93
0.60 0.81 0.94 0.66 0.43 0.41 0.73 0.77 0.29 0.22 0.21 0.19 0.19 0.19 0.19 0.21 0.23 0.21 0.19 0.20 0.22 0.21 0.20 0.20 0.24 0.26 0.26 0.26 0.28 0.31 0.32 0.33 0.34 0.35 0.37 0.42 0.47 0.51 0.56 0.61 0.71 0.77 0.81 0.85
0.70 1.03 1.16 0.83 0.61 0.63 0.59 0.31 0.21 0.16 0.16 0.18 0.17 0.16 0.16 0.18 0.19 0.18 0.17 0.18 0.20 0.21 0.23 0.24 0.24 0.25 0.26 0.26 0.29 0.33 0.35 0.36 0.37 0.38 0.40 0.43 0.48 0.53 0.58 0.63 0.66 0.70 0.73 0.77
0.67 0.91 0.86 0.70 0.58 0.46 0.38 0.28 0.19 0.16 0.16 0.19 0.19 0.19 0.20 0.21 0.18 0.18 0.18 0.17 0.17 0.20 0.20 0.20 0.22 0.22 0.24 0.28 0.31 0.33 0.34 0.35 0.38 0.40 0.41 0.41 0.47 0.54 0.58 0.61 0.63 0.67 0.70 0.76
0.42 0.46 0.42 0.38 0.35 0.28 0.25 0.23 0.19 0.18 0.21 0.23 0.24 0.23 0.21 0.22 0.21 0.20 0.19 0.17 0.16 0.19 0.21 0.22 0.23 0.24 0.28 0.29 0.28 0.29 0.35 0.37 0.38 0.39 0.41 0.44 0.47 0.53 0.57 0.61 0.64 0.67 0.72 0.76
0.36 0.31 0.28 0.25 0.25 0.24 0.19 0.17 0.16 0.19 0.22 0.24 0.24 0.24 0.22 0.22 0.23 0.22 0.20 0.20 0.22 0.24 0.25 0.26 0.27 0.29 0.33 0.35 0.32 0.30 0.32 0.35 0.36 0.37 0.42 0.44 0.47 0.50 0.52 0.58 0.69 0.77 0.79 0.81
0.37 0.27 0.28 0.29 0.24 0.19 0.18 0.16 0.15 0.16 0.17 0.19 0.21 0.24 0.24 0.22 0.22 0.24 0.25 0.26 0.28 0.29 0.29 0.29 0.29 0.31 0.34 0.38 0.39 0.38 0.38 0.36 0.35 0.37 0.41 0.44 0.46 0.47 0.51 0.54 0.65 0.71 0.71 0.71
0.23 0.21 0.20 0.19 0.20 0.18 0.17 0.17 0.17 0.17 0.17 0.18 0.19 0.22 0.24 0.23 0.22 0.22 0.26 0.27 0.29 0.30 0.31 0.29 0.28 0.27 0.28 0.32 0.36 0.37 0.38 0.40 0.40 0.40 0.41 0.45 0.45 0.45 0.50 0.51 0.53 0.58 0.63 0.65
0.15 0.16 0.19 0.17 0.16 0.16 0.17 0.18 0.18 0.16 0.16 0.17 0.19 0.20 0.21 0.21 0.19 0.20 0.25 0.28 0.30 0.30 0.29 0.29 0.28 0.28 0.28 0.29 0.34 0.38 0.39 0.42 0.45 0.45 0.46 0.48 0.53 0.56 0.57 0.60 0.60 0.56 0.55 0.57
0.14 0.15 0.17 0.18 0.18 0.17 0.18 0.20 0.21 0.19 0.18 0.20 0.21 0.22 0.22 0.22 0.23 0.23 0.25 0.27 0.29 0.29 0.31 0.32 0.29 0.29 0.30 0.31 0.33 0.35 0.38 0.43 0.47 0.53 0.56 0.54 0.56 0.62 0.64 0.58 0.54 0.54 0.54 0.56
0.17 0.17 0.18 0.20 0.23 0.22 0.21 0.22 0.24 0.23 0.21 0.21 0.23 0.28 0.29 0.27 0.26 0.24 0.25 0.26 0.29 0.31 0.33 0.35 0.34 0.34 0.34 0.34 0.34 0.34 0.37 0.46 0.50 0.52 0.55 0.55 0.55 0.60 0.61 0.61 0.60 0.63 0.63 0.67
0.20 0.22 0.24 0.26 0.28 0.26 0.25 0.27 0.27 0.27 0.26 0.25 0.26 0.28 0.30 0.30 0.28 0.28 0.28 0.28 0.30 0.32 0.34 0.38 0.38 0.38 0.39 0.37 0.39 0.40 0.40 0.43 0.48 0.51 0.53 0.56 0.56 0.60 0.62 0.63 0.66 0.69 0.68 0.73
0.21 0.22 0.23 0.27 0.30 0.30 0.27 0.28 0.28 0.27 0.28 0.29 0.30 0.31 0.33 0.35 0.35 0.35 0.33 0.31 0.32 0.37 0.42 0.44 0.43 0.40 0.38 0.38 0.41 0.43 0.42 0.44 0.46 0.51 0.54 0.57 0.60 0.64 0.70 0.69 0.69 0.73 0.73 0.75
0.24 0.25 0.25 0.26 0.29 0.32 0.32 0.31 0.30 0.30 0.31 0.29 0.30 0.33 0.34 0.34 0.34 0.34 0.33 0.34 0.35 0.40 0.42 0.43 0.46 0.39 0.37 0.40 0.46 0.49 0.50 0.52 0.54 0.55 0.57 0.60 0.63 0.66 0.72 0.72 0.72 0.76 0.79 0.78
0.27 0.26 0.25 0.25 0.26 0.31 0.35 0.34 0.32 0.32 0.33 0.32 0.31 0.31 0.31 0.29 0.29 0.31 0.33 0.37 0.39 0.40 0.38 0.42 0.42 0.41 0.42 0.44 0.49 0.50 0.55 0.60 0.65 0.68 0.69 0.70 0.71 0.74 0.78 0.76 0.76 0.80 0.82 0.83
0.24 0.23 0.23 0.25 0.26 0.30 0.34 0.35 0.35 0.32 0.31 0.30 0.31 0.32 0.31 0.29 0.28 0.29 0.35 0.42 0.42 0.38 0.35 0.40 0.37 0.38 0.43 0.51 0.55 0.54 0.57 0.61 0.65 0.70 0.72 0.73 0.76 0.77 0.80 0.79 0.78 0.81 0.84 0.84
0.24 0.22 0.21 0.22 0.23 0.27 0.31 0.32 0.30 0.26 0.26 0.28 0.30 0.31 0.33 0.34 0.32 0.34 0.38 0.43 0.45 0.47 0.41 0.38 0.36 0.43 0.55 0.60 0.52 0.53 0.57 0.62 0.65 0.70 0.73 0.77 0.80 0.80 0.83 0.86 0.85 0.84 0.86 0.90
0.28 0.25 0.24 0.24 0.25 0.27 0.31 0.33 0.31 0.28 0.28 0.27 0.28 0.32 0.38 0.43 0.44 0.45 0.47 0.43 0.43 0.51 0.48 0.45 0.48 0.57 0.67 0.58 0.51 0.53 0.56 0.60 0.61 0.65 0.72 0.82 0.86 0.86 0.87 0.88 0.87 0.87 0.89 0.94
0.30 0.28 0.26 0.26 0.28 0.33 0.38 0.39 0.37 0.33 0.33 0.34 0.33 0.33 0.34 0.39 0.44 0.45 0.46 0.51 0.54 0.54 0.49 0.52 0.59 0.64 0.65 0.55 0.55 0.57 0.59 0.60 0.61 0.62 0.67 0.73 0.76 0.80 0.85 0.90 0.93 0.94 0.92 0.92
0.31 0.29 0.29 0.30 0.35 0.40 0.40 0.40 0.41 0.38 0.39 0.41 0.40 0.37 0.34 0.36 0.43 0.45 0.42 0.44 0.56 0.60 0.54 0.59 0.66 0.67 0.59 0.56 0.58 0.60 0.63 0.66 0.69 0.71 0.70 0.70 0.72 0.78 0.85 0.89 0.94 1.00 1.02 1.00
0.34 0.33 0.35 0.39 0.42 0.41 0.42 0.45 0.45 0.43 0.41 0.42 0.41 0.38 0.35 0.35 0.37 0.38 0.40 0.42 0.49 0.61 0.63 0.64 0.63 0.64 0.61 0.63 0.65 0.67 0.67 0.69 0.71 0.72 0.69 0.71 0.75 0.80 0.88 0.93 0.95 1.01 1.03 1.01
0.37 0.37 0.39 0.38 0.38 0.39 0.43 0.47 0.48 0.46 0.44 0.46 0.46 0.41 0.40 0.41 0.42 0.44 0.45 0.50 0.54 0.60 0.67 0.73 0.71 0.72 0.73 0.71 0.72 0.73 0.73 0.74 0.76 0.77 0.76 0.77 0.79 0.80 0.86 0.92 0.97 1.02 1.06 1.06